Regional Weather Roundup
Issued by NWS Wakefield, VA

Home | Current Version | Previous Version | Graphics & Text | Print | Product List | Glossary Off
Versions: 1 2 3 4 5 6 7 8 9 10 11 12 13 14 15 16 17 18 19 20 21 22 23 24 25 26 27

000
ASUS41 KAKQ 031815
RWRAKQ

REGIONAL WEATHER ROUNDUP
NATIONAL WEATHER SERVICE WAKEFIELD VA
100 PM EST SAT DEC 03 2016

Note: "fair" indicates few or no clouds below 12,000 feet with no
significant weather and/or obstructions to visibility. * = Denotes
station may not report precipitation (e.g., rain,snow,etc.),
thunder or fog.

VAZ042-051-052>054-056-031900-
NORTHERN VIRGINIA

CITY           SKY/WX    TMP DP  RH WIND       PRES   REMARKS
WASH NATIONAL  PTSUNNY   50  30  46 NW16G25   30.20F
DULLES         MOSUNNY   47  28  47 NW20G29   30.20F
FORT BELVOIR   SUNNY     49  28  43 NW18      30.19F
QUANTICO       SUNNY     50  27  40 N10G17    30.22F
FREDERICKSBRG* MOSUNNY   50  31  48 N7        30.19F
STAFFORD*      SUNNY     49  30  48 NW17      30.24F
WARRENTON      SUNNY     51  22  31 N13G20    30.20F
CULPEPER*      SUNNY     51  32  47 CALM      30.20F
MANASSAS*      MOSUNNY   48  28  46 N10G17    30.22F
LEESBURG*      CLOUDY    46  32  57 N16G22    30.22F
WINCHESTER     CLOUDY    43  28  56 NW10G16   30.22F
FRONT ROYAL*   FAIR      46  30  53 NW6       30.19F
LURAY*         FAIR      48  32  53 W8        30.18F
$$

VAZ048-049-060>072-079>083-031900-
CENTRAL AND SOUTH CENTRAL VIRGINIA

CITY           SKY/WX    TMP DP  RH WIND       PRES   REMARKS
RICHMOND       NOT AVBL
CHESTERFIELD*  FAIR      52  21  30 NW8       30.23F
PETERSBURG*    SUNNY     50  26  39 N8        30.22F
HANOVER        MOSUNNY   50  29  44 NW9       30.22F
TAPPAHANNOCK*  MOSUNNY   49  23  35 NW9       30.21F
QUINTON*       FAIR      50  30  46 NW12G18   30.21F
CHARLOTTSVILLE MOSUNNY   49  27  42 NW3       30.19F
GORDONSVILLE*  FAIR      49  29  47 NW5       30.19F
ORANGE*          N/A     50  30  46 CALM      30.21F
LOUISA*        PTSUNNY   52  34  50 W5        30.19F
BUMPASS*       FAIR      48  29  48 W7        30.20F
FARMVILLE*     MOSUNNY   49  29  45 S3        30.21F
CREWE*         FAIR      48  29  47 NW6       30.22F
FORT PICKETT*  FAIR      48  21  34 N7        30.22F
CHASE CITY*    FAIR      47  25  42 CALM      30.22F
CLARKSVILLE*   FAIR      48  28  46 N3        30.23F
SOUTH HILL*    MOSUNNY   47  29  49 N3        30.28F
LAWRENCEVILLE* FAIR      49  28  44 NW6       30.21F
EMPORIA*       MOSUNNY   50  28  43 NW9       30.24F
$$

VAZ088>098-031900-
SOUTHEAST VIRGINIA

CITY           SKY/WX    TMP DP  RH WIND       PRES   REMARKS
NORFOLK        SUNNY     52  29  41 VRB5      30.20F
VIRGINIA BEACH MOSUNNY   51  28  41 N13G23    30.18F
NORFOLK NAVAL  PTSUNNY   53  31  42 W16       30.21F
WEST POINT*    MOSUNNY   51  28  40 NW8       30.22F
SALUDA*        FAIR      49  32  51 NW9G20    30.19F
NEWPORT NEWS   SUNNY     52  29  41 N9        30.20F
LANGLEY AFB    SUNNY     52  29  41 NW13      30.18F
FORT EUSTIS    SUNNY     53  31  42 NW9       30.18F
WILLIAMSBURG*  SUNNY     55  30  38 NW10G16   30.21F
HR EXEC AP*    FAIR      48  28  46 N7        30.20F
FRANKLIN*      MOSUNNY   49  29  45 NW10      30.22F
US460-WAKEFLD  SUNNY     50  29  44 VRB3      30.21F
$$

VAZ020-022-025-037-045-031900-
WEST CENTRAL AND SOUTHWEST VIRGINIA

CITY           SKY/WX    TMP DP  RH WIND       PRES   REMARKS
STAUNTON*      MOSUNNY   44  28  53 W7        30.21F
WAYNESBORO*    FAIR      43  26  52 W5        30.19F
HOT SPRINGS VA NOT AVBL
LYNCHBURG      MOSUNNY   44  26  49 CALM      30.23F
DANVILLE       MOSUNNY   47  27  45 N5        30.24F
SOUTH BOSTON*  FAIR      48  25  40 W7        30.23F
MARTINSVILLE   CLOUDY    44  26  47 NW6       30.26F
ROANOKE        CLOUDY    43  26  51 NW5       30.24F
BLACKSBURG     CLOUDY    38  27  66 NW6       30.24F
DUBLIN*        CLOUDY    39  27  62 NW9       30.23F
MARION*        CLOUDY    38  28  68 W9        30.24F
HILLSVILLE*    CLOUDY    36  26  69 NW7       30.19S
RICHLANDS*     CLOUDY    34  28  79 CALM      30.24S
WISE*          CLOUDY    36  28  75 CALM      30.26R
ABINGDON*      CLOUDY    40  29  63 W3        30.25F
$$

MDZ021>025-VAZ099-100-031900-
SOUTHERN MARYLAND AND THE DELMARVA PENINSULA

CITY           SKY/WX    TMP DP  RH WIND       PRES   REMARKS
PATUXENT RIVER MOSUNNY   50  29  44 NW16G24   30.18F
BAY BRIDGE APT MOSUNNY   50  32  50 NW20      30.17F
LEONARDTOWN    SUNNY     50  30  46 NW9G22    30.19F
DOVER          MOSUNNY   51  33  51 NW21      30.10F
GEORGETOWN     MOSUNNY   51  30  44 NW14G24   30.13F
EASTON         SUNNY     54  30  40 NW23G30   30.18F
CAMBRIDGE      MOSUNNY   50  32  50 NW12G23   30.16F
SALISBURY      MOSUNNY   50  29  44 NW20G26   30.14F
OCEAN CITY     MOSUNNY   52  30  43 N14G30    30.13S
WALLOPS ISLAND MOSUNNY   51  31  46 NW20G28   30.15F
ACCOMACK*      SUNNY     50  32  50 NW17G25   30.17F
$$

NCZ012>017-030>032-031900-
NORTH CENTRAL AND EASTERN NORTH CAROLINA

CITY           SKY/WX    TMP DP  RH WIND       PRES   REMARKS
ROANOKE RAPIDS FAIR      52  30  43 N10       30.24S
RALEIGH        MOSUNNY   51  26  37 VRB7      30.24F
ELIZABETH CITY SUNNY     54  30  40 NW13G18   30.19F
AHOSKIE*       SUNNY     50  28  42 NW6       30.23F
EDENTON*       SUNNY     53  31  43 N13       30.22S
CURRITUCK*     SUNNY     53  30  41 N9G18     30.19F
KILL DEVIL HLS SUNNY     51  35  56 N9        30.18F
MANTEO         SUNNY     50  33  51 N15G21    30.20F
CAPE HATTERAS  SUNNY     52  35  52 N8        30.20F
TARBORO*       NOT AVBL
GOLDSBORO      MOSUNNY   52  27  37 VRB6      30.22F
WASHINGTON     SUNNY     53  29  40 NW8       30.24S
GREENVILLE     SUNNY     52  30  43 N7        30.25F
NEW BERN       SUNNY     52  30  43 N9        30.23F
WILMINGTON     NOT AVBL
$$

VAZ048-031900-
ELSEWHERE

CITY           SKY/WX    TMP DP  RH WIND       PRES   REMARKS
HARRISBURG PA  PTSUNNY   49  33  54 NW15G24   30.13F
BALTIMORE      MOSUNNY   50  29  44 NW21G28   30.16F
ANNAPOLIS      SUNNY     51  30  44 NW18G24   30.16F
ANDREWS AFB    MOSUNNY   49  29  45 NW18G26   30.17F
PHILADELPHIA   PTSUNNY   50  27  40 NW14G25   30.11F
HENDERSON NC   SUNNY     47  25  41 N3        30.24F
GREENSBORO     SUNNY     47  27  45 CALM      30.22F
ROCKY MOUNT    SUNNY     52  29  41 MISG      30.24F
$$

VAZ100-031900-
MARINE

STATION/POSITION TIME  TEMP    WIND        PRES    WAVE   SWELL
                       AIR SEA DIR/SP/G            HT/PER HT/PER
                 (UTC) (F)     (DEG/KT/KT) (MB)    (FT/S) (FT/S)
BRANDYWINE LGT   1748   48     330/ 18/ 24   N/A
CAPE MAY NJ      1748   48 47  320/ 25/ 32 1018.8F
LEWES DE         1748   49 49  320/ 23/ 28 1019.5F
OCEAN-CITY-INLET 1748   49 51  330/ 17/ 21 1020.4F
WACHAPREAGUE VA  1748   49 50  320/  9/ 17 1021.4F
THOMAS POINT MD  1800   48 49  310/ 20/ 23   N/A
GOOSES REEF MD   1800   49 50  350/ 17/ 23 1022.3    2/ 3
COVE POINT MD    1748   48     350/ 20/ 28 1022.4F
SOLOMONS ISLAND  1748   49 52  310/ 12/ 18   N/A
BISHOPS HEAD MD  1748   49 45  300/ 19/ 24 1022.2F
PINEY POINT MD   1742          340/ 20/ 23   N/A
POTOMAC MD       1750   49     320/ 16/ 19 1021.4F
CAMBRIDGE MD     1748   49 47  310/ 15/ 20 1020.7F
LEWISETTA VA     1748   48 50  330/ 14/ 19 1022.0F
RAPPAHANNOCK LGT 1742          330/ 18/ 22 1022.5F
STINGRAY PT      1750   49     340/ 14/ 17 1022.6F
YORK RVR RNG VA  1748   49     340/ 12/ 14 1021.9F
YORKTOWN VA      1748   48 53  300/ 15/ 16 1022.1F
JAMESTOWN VA     1750   49     300/ 10/ 14   N/A
DOMINION TERM VA 1748   48     300/ 15/ 19 1022.6F
KIPTOPEKE VA     1748      51  340/ 13/ 19   N/A
CHES BAY BRIDGE  1748   48 53  300/ 12/ 15 1022.4F
CAPE HENRY VA    1748   49     290/ 12/ 18   N/A
WILLOUBY STN VA  1748   48     290/ 12/ 14 1023.4F
S CRANEY ISL VA  1748   49     300/ 10/ 15 1022.5F
CAPE HENRY BUOY  1742      56                N/A     4/ 4
1ST LANDING BUOY 1800   49 53              1022.5    2/ 3
CAPE CHARLES BUO 1756      56                N/A     3/ 3
OFFSHORE WE BUOY 1751      57                N/A     5/ 6
64NM E OF VA BCH 1750   49 60  330/ 19/ 25 1020.8F   8/ 7   5/ 7
DUCK PIER NC     1748   49 56  330/ 16/ 20 1021.3F
44100 DUCK FRF   1705      57                N/A     5/ 7
OREGON INLET NC  1742   50 56  340/ 12/ 17 1021.9F
HATTERAS NC      1748   49 57  350/ 14/ 16 1022.2F
DIAMOND SHLS NC  1750   53 74  360/ 17/ 21 1022.2S   5/ 8   3/ 8
CAPE LOOKOUT NC  1700   49     340/ 11/ 15 1023.4F
$$




USA.gov is the U.S. government's official web portal to all federal, state and local government web resources and services.